SCP
0 0 0 0 0 0 0 0 0 0 0 0 0 0 0 0 0 0 0 0 0 0 0 1 2 3 4 5 6 5 4 4 4 3 2 3 3 3 3 3 3 2 2 1
0 0 0 0 0 0 0 0 0 0 0 0 0 0 0 0 0 0 0 0 0 0 0 1 2 3 4 5 6 5 4 4 3 3 3 3 3 2 3 3 3 2 2 1
0 0 0 0 0 0 0 0 0 0 0 0 0 0 0 0 0 0 0 0 0 0 0 1 2 3 4 5 5 4 4 4 3 3 3 3 3 2 2 2 2 2 1 1
0 0 0 0 0 0 0 0 0 0 0 0 0 0 0 0 0 0 0 0 0 0 0 0 1 2 3 4 5 4 3 3 3 3 3 3 2 2 2 2 2 2 1 1
0 0 0 0 0 0 0 0 0 0 0 0 0 0 0 0 0 0 0 0 0 0 0 0 1 2 3 4 4 3 3 3 3 3 3 3 2 2 1 1 1 1 1 1
0 0 0 0 0 0 0 0 0 0 0 0 0 0 0 0 0 0 0 0 0 0 0 0 1 2 2 3 4 3 2 3 3 3 3 3 2 2 1 1 1 1 1 1
0 0 0 0 0 0 0 0 0 0 0 0 0 0 0 0 0 0 0 0 0 0 0 0 1 2 2 2 3 3 3 3 3 3 3 2 2 1 1 1 1 1 1 1
0 0 0 0 0 0 0 0 0 0 0 0 0 0 0 0 0 0 0 0 0 0 0 0 1 2 1 2 2 3 3 4 3 3 3 2 2 1 1 1 1 1 1 1
0 0 0 0 0 0 0 0 0 0 0 0 0 0 0 0 0 0 0 0 0 0 0 0 1 1 1 1 2 3 4 4 4 3 3 2 1 1 1 1 1 1 1 1
0 0 0 0 0 0 0 0 0 0 0 0 0 0 0 0 0 0 0 0 0 0 0 0 0 1 1 1 2 3 3 4 4 3 3 2 1 1 1 1 1 1 1 1
0 0 0 0 0 0 0 0 0 0 0 0 0 0 0 0 0 0 0 0 0 0 0 0 0 0 0 1 2 3 3 4 3 3 2 2 1 1 1 1 1 1 1 1
0 0 0 0 0 0 0 0 0 0 0 0 0 0 0 0 0 0 0 0 0 0 0 0 0 0 0 1 2 2 3 3 3 2 1 1 1 1 1 1 1 1 1 1
0 0 0 0 0 0 0 0 0 0 0 0 0 0 0 0 0 0 0 0 0 0 0 0 0 0 0 1 2 2 3 3 2 1 1 1 1 1 1 1 1 1 1 1
0 0 0 0 0 0 0 0 0 0 0 0 0 0 0 0 0 0 0 0 0 0 0 0 0 0 0 0 1 2 2 2 1 1 1 1 1 1 1 1 1 1 1 1
0 0 0 0 0 0 0 0 0 0 0 0 0 0 0 0 0 0 0 0 0 0 0 0 0 0 0 0 1 1 1 1 1 0 0 1 1 1 0 0 0 1 1 1
0 0 0 0 0 0 0 0 0 0 0 0 0 0 0 0 0 0 0 0 0 0 0 0 0 0 0 0 0 0 0 0 0 0 1 1 0 0 0 0 0 0 0 0
0 0 0 0 0 0 0 0 0 0 0 0 0 0 0 0 0 0 0 0 0 0 0 0 0 0 0 0 0 0 0 0 0 0 0 0 0 0 0 0 0 0 0 0
0 0 0 0 0 0 0 0 0 0 0 0 0 0 0 0 0 0 0 0 0 0 0 0 0 0 0 0 0 0 0 0 0 0 0 0 0 0 0 0 0 0 0 0
0 0 0 0 0 0 0 0 0 0 0 0 0 0 0 0 0 0 0 0 0 0 0 0 0 0 0 0 0 0 0 0 0 0 0 0 0 0 0 0 0 0 0 0
0 0 0 0 0 0 0 0 0 0 0 0 0 0 0 0 0 0 0 0 0 0 0 0 0 0 0 0 0 0 0 0 0 0 0 0 0 0 0 0 0 0 0 0
0 0 0 0 0 0 0 0 0 0 0 0 0 0 0 0 0 0 0 0 0 0 0 0 0 0 0 0 0 0 0 0 0 0 0 0 0 0 0 0 0 0 0 0
0 0 0 0 0 0 0 0 0 0 0 0 0 0 0 0 0 0 0 0 0 0 0 0 0 0 0 0 0 0 0 0 0 0 0 0 0 0 0 0 0 0 0 0
0 0 0 0 0 0 0 0 0 0 0 0 0 0 0 0 0 0 0 0 0 0 0 0 0 0 0 0 0 0 0 0 0 0 0 0 0 0 0 0 0 0 0 0
0 0 0 0 0 0 0 0 0 0 0 0 0 0 0 0 0 0 0 0 0 0 0 0 0 0 0 0 0 0 0 0 0 0 0 0 0 0 0 0 0 0 0 0
0 0 0 0 0 0 0 0 0 0 0 0 0 0 0 0 0 0 0 0 0 0 0 0 0 0 0 0 0 0 0 0 0 0 0 0 0 0 0 0 0 0 0 0
0 0 0 0 0 0 0 0 0 0 0 0 0 0 0 0 0 0 0 0 0 0 0 0 0 0 0 0 0 0 0 0 0 0 0 0 0 0 0 0 0 0 0 0
Wind_Speed
2 2 3 5 6 8 8 9 10 9 5 5 7 8 6 5 3 3 3 2 1 1 0 1 1 2 2 2 2 3 5 5 5 4 4 4 3 3 3 3 4 5 4 4
1 3 5 5 5 7 8 10 10 7 5 5 6 8 5 4 3 2 2 1 1 0 2 3 2 2 2 2 2 2 3 5 5 4 3 3 3 2 3 3 4 4 5 5
2 3 4 6 6 7 8 8 8 8 7 6 5 7 5 3 1 1 2 2 2 2 2 3 3 2 2 2 1 1 2 3 4 4 4 3 3 3 2 3 3 3 4 5
3 4 4 5 5 6 8 6 7 7 5 4 4 4 3 3 1 0 2 4 4 4 4 3 3 3 1 1 1 1 1 2 3 4 5 6 5 4 3 3 3 3 4 4
3 3 4 5 6 6 6 8 8 7 6 5 5 4 3 2 1 1 3 4 4 4 4 4 3 2 1 1 1 0 1 1 2 3 5 6 5 4 3 3 4 3 3 4
4 2 2 4 6 5 6 6 6 5 3 5 7 5 1 1 1 2 4 5 6 5 5 4 4 3 3 2 2 1 1 0 1 2 4 5 6 6 5 4 4 3 3 3
4 1 1 3 5 4 4 2 1 2 4 5 4 3 1 4 5 5 6 6 6 6 6 5 5 4 3 3 2 2 1 0 1 2 3 4 5 6 6 5 5 4 3 3
4 3 2 2 2 3 3 1 1 3 3 2 2 3 3 5 7 7 7 8 8 8 8 7 5 4 3 3 2 1 1 1 1 2 2 3 4 4 4 4 4 4 3 3
4 4 3 3 2 3 3 2 3 3 4 3 2 2 4 9 10 10 10 9 9 9 9 8 7 6 5 3 2 1 1 1 1 2 2 3 3 3 4 4 4 3 3 3
4 5 4 3 2 2 3 3 2 2 2 3 2 1 2 6 8 10 10 9 9 9 10 9 8 7 6 5 3 2 1 1 2 2 2 2 3 4 4 4 4 4 4 4
4 3 4 2 2 3 3 2 3 3 3 2 2 1 5 5 7 8 8 9 9 9 9 8 8 8 6 5 4 3 2 1 0 1 1 2 2 3 4 4 4 4 4 5
3 3 4 2 1 2 1 2 1 2 3 3 1 1 4 7 7 7 9 10 9 9 9 9 9 9 8 6 5 4 3 1 1 0 1 2 2 3 4 4 4 4 4 4
3 2 3 1 1 3 3 3 3 2 2 2 2 0 4 8 9 9 9 9 9 9 9 9 9 9 9 8 6 4 2 2 1 0 1 1 2 3 4 4 4 4 4 4
3 1 2 3 3 2 4 5 4 2 1 3 3 3 6 9 10 10 9 9 9 8 9 10 9 9 9 9 7 5 3 2 2 1 1 1 2 2 3 4 4 4 4 4
3 2 3 4 5 3 3 4 4 2 2 2 3 3 5 7 8 8 8 9 10 10 10 11 10 10 9 9 9 6 4 3 2 0 1 1 1 2 2 3 3 3 4 4
3 2 4 5 4 2 3 4 3 3 3 4 4 4 5 7 7 8 9 10 10 10 11 11 11 11 10 10 9 7 5 3 2 1 1 0 1 2 3 3 3 4 3 3
2 2 2 3 3 3 3 2 1 1 2 3 4 4 7 8 8 9 9 9 9 11 11 11 11 10 10 9 9 7 6 4 2 1 1 1 1 2 2 3 3 4 4 4
1 2 2 3 3 2 1 2 2 1 2 3 4 6 7 7 7 6 5 7 10 11 11 10 10 11 9 8 8 7 6 4 3 2 1 0 1 2 2 3 3 3 3 3
2 1 2 2 2 2 1 3 3 2 2 5 6 7 8 8 6 3 7 9 9 10 10 9 9 9 9 8 8 6 6 4 3 3 2 1 1 2 2 2 3 3 3 3
1 0 1 2 2 2 2 4 5 2 1 6 7 7 8 8 5 6 9 11 11 10 9 9 9 8 8 8 7 6 6 4 3 3 3 2 0 1 2 2 2 2 3 3
2 2 2 2 2 1 3 7 4 1 3 7 7 7 6 5 4 8 10 10 10 10 10 9 8 7 7 7 6 6 6 5 3 3 3 2 1 0 1 2 1 2 3 3
1 2 1 1 1 2 5 5 3 2 4 5 6 6 7 7 8 9 10 10 11 11 10 9 8 7 7 7 6 6 6 6 4 3 3 3 2 0 1 2 2 2 3 4
0 0 0 0 1 1 2 2 2 3 4 5 6 7 7 8 8 9 9 9 10 10 10 9 8 9 8 7 6 6 6 6 4 4 4 3 2 2 1 2 2 2 3 3
1 1 1 1 1 2 2 3 5 5 5 6 6 6 7 7 8 8 8 8 9 9 9 8 9 9 9 8 8 7 7 6 5 4 4 3 3 3 2 2 1 2 2 2
2 1 1 2 3 3 2 4 6 6 6 6 7 7 7 7 8 8 7 7 7 8 8 8 8 8 9 9 8 8 8 7 5 5 4 4 3 3 3 3 3 2 2 1
1 0 1 2 2 2 3 4 6 6 6 7 7 7 7 7 7 8 7 6 6 7 7 8 8 9 9 9 9 9 8 7 6 5 4 3 3 3 3 3 3 6 4 5
Wind_Direction
221 237 248 254 247 269 279 278 276 277 277 255 250 257 252 264 261 257 256 233 206 206 16 33 44 88 106 120 133 150 149 147 142 140 142 141 141 143 135 130 133 136 138 128
233 256 281 296 293 285 280 277 281 290 298 276 263 265 248 242 233 232 241 237 176 31 8 17 27 60 110 115 131 143 148 153 149 147 145 146 140 132 129 131 131 135 136 131
258 308 306 302 301 292 274 265 275 283 298 279 274 269 237 226 206 359 20 34 53 52 32 19 27 29 50 74 117 141 149 153 151 141 126 120 114 108 112 130 140 141 135 131
275 310 315 312 305 291 281 292 289 286 278 261 221 260 222 210 201 37 30 32 31 31 21 16 21 22 33 51 66 122 136 148 152 153 151 150 149 151 164 150 142 139 136 134
288 325 324 308 309 300 290 308 286 267 260 270 246 251 261 180 185 52 30 22 15 23 17 10 8 6 7 33 49 60 98 127 146 160 159 154 149 144 138 141 136 135 134 135
280 311 330 321 310 291 312 303 279 248 232 245 227 218 281 18 346 24 19 19 14 11 8 4 12 16 13 33 42 29 39 53 159 155 157 159 156 151 147 157 156 150 143 139
297 279 21 352 334 333 337 342 313 239 212 235 204 188 77 35 38 34 23 18 17 15 8 4 7 10 11 17 26 16 12 307 172 167 166 164 159 158 158 161 158 156 152 147
313 298 10 13 342 310 289 278 231 248 249 280 198 176 98 44 36 33 32 23 17 15 11 2 355 358 7 9 11 23 327 271 203 191 185 162 156 162 158 154 150 160 163 154
315 295 335 351 347 336 306 274 275 276 276 262 219 120 82 27 25 22 21 18 10 7 7 0 356 2 3 2 356 354 304 276 222 217 189 166 163 162 154 150 147 153 152 145
318 292 299 330 340 343 308 302 309 273 276 264 234 133 26 18 12 13 12 10 6 4 4 0 360 359 357 352 349 351 338 285 218 212 199 187 175 165 157 154 155 155 153 148
327 293 299 339 17 345 340 325 310 283 260 268 268 62 31 34 14 6 5 6 3 2 359 355 354 354 348 351 350 352 343 346 281 208 202 183 174 158 153 157 158 152 149 149
345 311 290 284 68 27 2 334 322 284 297 291 283 107 36 28 17 13 6 1 357 359 358 357 357 354 352 348 344 346 343 348 316 227 182 183 179 159 152 153 151 147 148 152
337 325 313 306 25 22 6 346 334 304 293 294 270 248 14 13 13 12 3 359 359 359 359 358 358 353 349 344 342 338 340 341 331 307 158 165 164 155 154 152 149 147 148 149
334 274 243 265 303 326 323 330 338 349 287 298 291 313 341 356 360 0 357 356 356 357 358 356 352 346 342 341 339 336 331 332 318 266 157 158 161 156 151 151 151 145 145 146
343 285 284 293 304 303 309 320 330 304 281 273 305 318 337 350 352 349 348 352 354 355 354 350 345 341 338 340 340 335 329 321 310 256 165 161 149 142 140 141 144 140 144 150
339 298 306 290 275 301 320 335 332 314 308 300 314 320 355 352 352 349 349 350 349 347 345 341 339 337 335 337 337 336 329 323 311 264 197 155 138 140 146 147 144 145 146 145
307 306 295 281 309 322 325 336 357 354 341 321 312 320 342 345 349 344 341 344 343 340 338 335 333 331 330 331 331 331 328 326 324 290 190 148 148 149 150 152 148 152 154 148
273 295 266 279 320 275 214 44 38 357 360 8 359 351 346 336 325 328 349 353 344 338 334 332 329 329 329 330 332 330 334 338 349 350 345 148 160 158 147 148 153 153 151 151
255 266 282 277 275 252 115 28 8 332 319 21 358 346 342 333 320 350 10 356 338 330 326 322 321 321 324 331 333 335 342 347 355 351 345 334 185 164 152 147 154 152 149 150
311 254 268 285 288 274 4 341 321 293 270 9 357 345 343 348 339 325 341 338 335 333 330 327 325 326 330 333 335 340 342 347 351 340 334 333 314 176 164 160 164 154 151 155
315 280 265 273 260 281 348 324 340 38 304 342 350 347 346 344 313 313 328 333 335 334 334 336 334 335 333 334 338 341 342 341 336 340 347 354 2 158 167 155 156 149 147 144
320 311 309 300 265 280 353 13 32 323 334 346 350 351 344 332 328 332 335 336 339 341 344 348 345 343 341 344 346 348 341 335 346 8 11 12 15 38 133 136 141 146 146 145
280 275 296 235 233 330 27 40 15 6 348 347 345 341 339 333 333 335 337 339 341 344 346 349 349 348 350 354 357 352 341 347 3 21 20 16 20 46 89 128 138 140 141 143
343 4 303 294 284 0 24 33 20 9 351 340 341 338 336 331 331 333 338 341 344 347 348 351 355 356 356 357 1 358 354 1 14 21 16 16 31 47 58 67 85 115 128 133
329 340 289 269 309 339 5 15 1 350 345 342 339 337 335 333 332 335 338 340 343 345 348 352 356 356 356 359 2 1 2 8 16 19 17 18 25 44 55 56 49 56 67 120
14 184 250 263 336 317 306 341 348 342 339 337 334 333 336 335 330 333 334 337 341 344 347 351 353 354 354 358 0 359 359 6 13 14 16 21 27 36 47 61 55 47 57 61